ALE-1

导读

ALE-1卫星由日本发射于2019年1月18日,是日本Astroscale公司研发的太空垃圾清除技术演示卫星,旨在验证在轨捕获空间碎片的关键技术,推动商业化空间碎片清理解决方案发展。卫星搭载了相关导航、对接传感器与机械捕获装置,进入低地球轨道后开展了多次接近目标碎片的技术试验,为后续空间环境治理任务奠定技术基础。

Basic Information
目录编号:
43938
目录名称:
ALE-1
国际标识:
2019-003G
轨道中心:
EARTH
卫星名称:
ALE-1
卫星全名:
--
卫星状态:
已陨落 最后检测时间 2023-10-04
发射日期:
2019-01-18 UTC
国别 :
日本 (JP)
星等 :
--
Orbit Information
数据来源 国际轨道数据
星历时间: 2023-10-03T20:09:14+0800
轨道信息已过期1014天
半长轴: 6522.303km
偏心率: 0.0009201
轨道倾角: 97.044°
近地点辐角 243.582°
升交点赤经 325.343°
平近点角 116.454°
近地点: 138.166km
远地点: 150.17km
周期: 87.370分钟
每日圈数: 16.481677
Detailed Information
使用方式:
暂无